Terug naar catalogus

COSMOS 1137

ActiefMilitairLEO
NORAD 11545·PAYLOAD·🇷🇺 Russia

Gelanceerd Sep 25, 1979 vanaf Plesetsk Cosmodrome

Loading…

Volgende Passages (komende 24 uur)

TLE

VersSource: Space-Track

Epoch: Sep 14, 2026, 09:43 UTC

1 11545U 79084H   26257.40516476  .00000005  00000-0  14947-3 0  9992
2 11545  74.0242 135.8462 0026766 338.9703 133.4044 12.43199455131610

Volg COSMOS 1137 in realtime met AllMySat

Download on the App Store